Location: Saratoga Springs
(43.0831°N, 73.7850°W)
Time: 10:49:50
(UTC-04:00)

Vanguard 3 - Pass Details

Date: 29 April 2024
Orbit: 509 x 3233 km, 33.3° (Epoch: 22 May)

Event Time Altitude Azimuth Distance (km) Brightness Sun altitude
Exits shadow 00:34:47 31° 132° (SE) 4,400 10.4 -32.2°
Drops below altitude 10° 00:45:31 10° 93° (E) 5,319 11.2 -32.3°
Sets 00:49:40 0° 84° (E) 5,997 11.6 -32.3°
